TimeMDT,TemperatureF,Dew PointF,Humidity,Sea Level PressureIn,VisibilityMPH,Wind Direction,Wind SpeedMPH,Gust SpeedMPH,PrecipitationIn,Events,Conditions,WindDirDegrees,DateUTC
12:53 AM,41.0,25.0,53,30.10,10.0,SE,8.1,-,N/A,,Clear,140,2012-10-31 06:53:00
1:53 AM,41.0,25.0,53,30.11,10.0,SSE,5.8,-,N/A,,Clear,150,2012-10-31 07:53:00
2:53 AM,41.0,24.1,51,30.11,10.0,South,6.9,-,N/A,,Clear,170,2012-10-31 08:53:00
3:53 AM,41.0,24.1,51,30.10,10.0,SSE,8.1,-,N/A,,Clear,160,2012-10-31 09:53:00
4:53 AM,39.9,23.0,51,30.09,10.0,SSE,8.1,-,N/A,,Clear,150,2012-10-31 10:53:00
5:53 AM,42.1,21.9,45,30.11,10.0,SSE,4.6,-,N/A,,Clear,160,2012-10-31 11:53:00
6:53 AM,42.1,21.9,45,30.13,10.0,South,6.9,-,N/A,,Clear,190,2012-10-31 12:53:00
7:53 AM,41.0,21.9,47,30.16,10.0,South,6.9,-,N/A,,Clear,170,2012-10-31 13:53:00
8:53 AM,42.1,24.1,49,30.16,10.0,SSE,5.8,-,N/A,,Clear,160,2012-10-31 14:53:00
9:53 AM,46.9,24.1,41,30.14,10.0,South,5.8,-,N/A,,Clear,180,2012-10-31 15:53:00
10:53 AM,52.0,25.0,35,30.13,10.0,Calm,Calm,-,N/A,,Clear,0,2012-10-31 16:53:00
11:53 AM,57.0,25.0,29,30.11,10.0,SW,5.8,-,N/A,,Clear,230,2012-10-31 17:53:00
1:53 PM,62.1,21.0,21,30.04,10.0,West,8.1,-,N/A,,Clear,260,2012-10-31 19:53:00
2:53 PM,64.9,21.0,19,30.01,10.0,WSW,11.5,-,N/A,,Clear,240,2012-10-31 20:53:00
3:53 PM,64.0,19.9,18,29.99,10.0,WSW,8.1,-,N/A,,Clear,240,2012-10-31 21:53:00
4:53 PM,64.0,21.9,20,29.99,10.0,SW,8.1,-,N/A,,Clear,220,2012-10-31 22:53:00
5:53 PM,57.9,24.1,27,30.00,10.0,WSW,5.8,-,N/A,,Clear,240,2012-10-31 23:53:00
6:53 PM,55.9,23.0,28,30.01,10.0,ESE,5.8,-,N/A,,Clear,120,2012-11-01 00:53:00
7:53 PM,51.1,26.1,38,30.04,10.0,East,9.2,-,N/A,,Clear,100,2012-11-01 01:53:00
8:53 PM,50.0,24.1,36,30.03,10.0,SSE,6.9,-,N/A,,Clear,160,2012-11-01 02:53:00
9:53 PM,48.0,23.0,37,30.02,10.0,South,6.9,-,N/A,,Clear,170,2012-11-01 03:53:00
10:53 PM,46.9,23.0,39,29.99,10.0,SE,6.9,-,N/A,,Clear,140,2012-11-01 04:53:00
11:53 PM,46.0,23.0,40,29.97,10.0,South,6.9,-,N/A,,Clear,180,2012-11-01 05:53:00